铱星星座 119星 (IRIDIUM 119)

导读 | 星芒AI

IRIDIUM 119 是 IRIDIUM 卫星星座中的一颗通信卫星,属于美国 IRIDIUM 公司运营的全球卫星通信系统。该星座由 66 颗工作卫星组成,提供全球范围内的语音和数据通信服务,广泛应用于航空、航海和偏远地区通信。IRIDIUM 119 于 1997 年发射,运行在低地球轨道,支持卫星电话和数据传输功能。该系统在 2015 年完成“下一代”卫星部署后逐步退役,但仍对全球移动通信具有重要历史意义。

基本信息
目录编号:
42959
目录名称:
IRIDIUM 119
国际标识:
2017-061E
轨道中心:
EARTH
卫星名称:
铱星星座 119星
卫星全名:
铱星星座 119星 (IRIDIUM 119)
卫星状态:
在轨 (已飞行2942 天)
发射日期:
2017-10-09 UTC
国别 :
美国 (US)
星等 :
--
轨道信息
数据来源 国际轨道数据
星历时间: 2025-10-28T19:53:07+0800
19小时前
查看轨道信息
半长轴: 7155.805km
偏心率: 0.0002281
轨道倾角: 86.394°
近地点辐角 84.094°
升交点赤经 122.132°
平近点角 276.052°
近地点: 776.037km
远地点: 779.303km
周期: 100.403分钟
每日圈数: 14.342177
详细信息
平衡模式:
三轴稳定
覆盖范围:
全球
运营商:
铱星通信公司
运营商所在国:
美国
制造商(研发单位):
阿莱尼亚宇航公司
制造商所在国:
意大利
使用方式:
暂无
卫星简介
铱星(Iridium)是由共66个运作中的通信卫星组成的卫星通信系统。这个系统原本规划77个通信卫星,所以用原子序数为77的铱元素来命名。铱卫星允许人们使用手持型电子设备进行全球性的语音及数据通讯。该卫星仍在工作。
2D轨道图
3D轨道图
轨道高度分析图
轨道倾角分析图
轨道综合分析图
查看轨道综合分析图